{"data":{"norad_id":62763,"epoch":"2026-09-21T20:45:08.928288Z","epoch_age_seconds":53349,"freshness":"FRESH","line1":"1 62763U 25015F   26264.86468667  .00006936  00000+0  23502-3 0  9996","line2":"2 62763  53.1583 130.0249 0001297 101.3640 258.7507 15.31706946 94531","mean_motion":15.31706946,"eccentricity":0.0001297,"inclination_deg":53.1583,"raan_deg":130.0249,"arg_perigee_deg":101.364,"mean_anomaly_deg":258.7507,"bstar":0.00023502,"rev_number":9453,"period_min":94.012761629143,"perigee_km":469.83099297857,"apogee_km":471.6075863001,"semimajor_km":6848.8562896393,"source":"CELESTRAK","updated_at":"2026-09-22T09:00:49.661426Z"}}